Showing default

COSMOS 1691, 16139

Orbit data source: Space-Track

COSMOS 1691, 16139 is a payload satellite owned by GUKOS (CIS) in LEO that was launched on Wed, 09 Oct 1985 UTC via a TSIKLON-3 launch vehicle from the Plesetsk Missile And Space Complex (PKMTR). Payload-class satellites include a variety of spacecraft equipped with specific instruments for various scientific and technological missions. These include communications satellites like Starlink; space stations such as the ISS; scientific satellites like the Hubble; Earth observation satellites from companies like Planet Labs, Umbra, and HawkEye 360; GPS; miniature CubeSats for education and research; and military/defense satellites.

Loading next visibility...
Identifier
16139, 1985-094B
Orbit
LEO
Country
Flag of CISCIS
Related business
Manufacturer
NPO PM
Mission
Spacecraft
Bus & Motor
STRELA-3, Unknown motor
Mass
225 kg wet, 225 kg dry
Launch date (UTC)
1985-10-09 (40 years ago)
Launch vehicle
TSIKLON-3
Launch site
Plesetsk Missile And Space Complex (PKMTR)
Object type
Payload
Rocket body
Debris
Shape & HBR
Unknown
Radar Cross Section
Medium (>0.1 m² and <1 m²)

Expand to show TLE details & history
Last TLE update: 11 hours ago

TLE from 11 hours ago
0 COSMOS 1691
1 16139U 85094B   26037.00473292  .00000014  00000-0  17763-4 0  9994
2 16139  82.6136  13.2653 0001534  89.5821 333.0272 12.62472193858686
Epoch: 2026-02-06T00:06Z
TLE epoch observation values (Epoch: 2026-02-06T00:06:48.924Z)
Latitude
61.78368°
Longitude
-110.67649°
Altitude
1,422.231 km
Speed
7.156 km/s
True Right ascension
01h 48m 42s
True Declination
61° 39' 09"
Sunlit
Object was in daylight at epoch
Visualization orbit readout
Latitude
Unknown
Longitude
Unknown
Altitude
Unknown
Speed
Unknown
Apparent Right ascension
Unknown
Apparent Declination
Unknown
Sunlit
N/A
Visualization observer readout
Local Sidereal Time
13:30:11
Azimuth
Unknown
Elevation
Unknown
Doppler factor
Unknown
Orbital elements
Apogee altitude
1,411.271 km
Perigee altitude
1,408.881 km
Semi-major axis
7,788.213 km
Eccentricity
0.00015
Inclination
82.6136°
RAAN
13.2653°
Arg. of periapsis
89.5821°
True anomaly
333.01923°
Mean anomaly
333.0272°
Eccentric anomaly
333.02321°
Mean motion
3.15781 °/min
Orbital period
114 mins
BSTAR
0.000017763
Loading maneuver chart data...
Computing Atmospheric mass density...
Loading historical data...
Loading historical data...
Loading historical data...
Loading historical data...
Loading historical data...
Loading historical data...
Loading historical data...

Documentation

Showing up to 5 results
|